Preview of NWS' New Version of Forecast
This preview is not operational and should not be used for support decisions.

Regional Weather Roundup (RWR)

Issued by National Weather Service (NWS)

                            
000
ASUS42 KTBW 212118
RWRFL 
FLORIDA REGIONAL WEATHER ROUNDUP
NATIONAL WEATHER SERVICE TAMPA BAY RUSKIN FL
500 PM EDT SUN JUL 21 2019

NOTE: "FAIR" INDICATES FEW OR NO CLOUDS BELOW 12,000 FEET WITH NO
SIGNIFICANT WEATHER AND/OR OBSTRUCTIONS TO VISIBILITY.

FLZ001>010-012>015-112-114-115-212200-
PANHANDLE FLORIDA
  
CITY           SKY/WX    TMP DP  RH WIND       PRES   REMARKS
PENSACOLA      FAIR      86  73  65 S10       30.01F                  
PENSACOLA NAS  FAIR      84  76  76 S10       30.01F                  
MILTON NAS     FAIR      87  71  58 S7          N/A                   
CRESTVIEW      FAIR      84  72  67 W5        30.03F                  
DUKE FIELD     FAIR      85  73  67 W8        30.01F                  
VALPARAISO     FAIR      87  71  59 SW9       30.01F                  
MARY ESTHER    MOSUNNY   86  73  65 S6        30.00F                  
TRI COUNTY     TSTM      81  76  84 CALM      30.02F                  
PANAMA CITY    FAIR      85  74  69 S10       30.01F                  
TYNDALL AFB    FAIR      87  74  65 S9        30.02F HX  96           
APALACHICOLA   FAIR      87  75  67 S8        30.02  HX  96           

STATION/POSITION SKY/WX   TEMP    WIND        PRES    WAVE   SWELL
                          AIR SEA DIR/SP/G            HT/PER HT/PER
                          (F)     (DEG/KT/KT) (MB)    (FT/S) (FT/S)
30.1N   87.6W              79 86  200/ 10/ 12 1016.9S   1/ 4
29.2N   88.2W              81 85  220/  8/ 10 1017.1F   2/ 4   2/ 4
28.8N   86.0W                 86  330/  2/  4 1017.0F   1/ 4   2/ 4
PANAMA CITY BEAC           85 87  210/  6/ 10 1017.3F
TOWER C                    82     150/  8/  9 1016.9F
28.5N   84.5W              81      90/  4/  6 1017.6F   2/ 4   2/ 4

$$
FLZ011-016>038-118-127-128-134-139-239-212200-
NORTH FLORIDA
  
CITY           SKY/WX    TMP DP  RH WIND       PRES   REMARKS
MARIANNA       PTSUNNY   76  73  91 W13       30.01S                  
TALLAHASSEE    FAIR      88  76  67 N8        30.01F THUNDER HX  99   
PERRY          CLOUDY    83  73  72 E3        30.05R                  
LIVE OAK       CLOUDY    72  72 100 W8G18     30.07R THUNDER VSB 1/2  
CROSS CITY     LGT RAIN  74  73  96 CALM      30.02F                  
LAKE CITY      PTSUNNY   84  72  65 SW10      30.02F                  
GAINESVILLE    FAIR      80  71  74 W8        30.06R                  
WILLISTON      FAIR      83  72  67 NW8       30.02F                  
PALATKA        PTSUNNY   82  75  78 SE6       30.04F                  
MAYPORT NAS    FAIR      86  76  71 SE13      30.02F HX  96           
JACKSONVILLE   PTSUNNY   88  73  61 SE10      30.00F HX  95           
JAX NAS        FAIR      85  74  69 SE7       30.03S                  
JAX CECIL      RAIN      77  70  78 SE29G46   30.08R                  
FERNANDINA BEA FAIR      87  77  70 SE14      30.03S HX  99           
ST AUGUSTINE   FAIR      88  76  67 SE17      30.04F HX  99           
PALM COAST     SUNNY     88  73  62 SE8       30.05S HX  96           

STATION/POSITION SKY/WX   TEMP    WIND        PRES    WAVE   SWELL
                          AIR SEA DIR/SP/G            HT/PER HT/PER
                          (F)     (DEG/KT/KT) (MB)    (FT/S) (FT/S)
SHELL POINT      NOT AVBL
KEATON BEACH               87     270/  4/  5 1017.0F
CEDAR KEY                  85     330/  3/  5 1017.0F
FERNANDINA                 92 86  110/  9/ 13 1017.5F
30.7N   81.3W                 85                N/A     2/ 8
MAYPORT                    86 83  140/ 11/ 16 1017.4
31.4N   80.9W              83 85  170/ 14/ 16 1016.5F   2/ 9   2/ 9
ST AUGUSTINE               82 82  140/ 10/ 11 1017.3F

$$
FLZ040-043>046-052-053-057-058-063-144-212200-
INTERIOR CENTRAL FLORIDA
  
CITY           SKY/WX    TMP DP  RH WIND       PRES   REMARKS
OCALA          PTSUNNY   87  74  64 E20G29    30.05R THUNDER HX  95   
LEESBURG       PTSUNNY   74  69  85 NE7       30.07F                  
SANFORD        PTSUNNY   78  72  81 W7        30.05F                  
ORLANDO EXEC   PTSUNNY   76  72  87 N6        30.05F THUNDER          
ORLANDO INTL   PTSUNNY   81  71  71 CALM      30.04S THUNDER          
KISSIMMEE      FAIR      79  69  71 NW3       30.06S                  
WINTER HAVEN   TSTM      75  71  87 W3        30.07R                  
LAKELAND       TSTM      73  72  94 CALM      30.07S                  
SEBRING        FAIR      81  71  72 CALM      30.04S                  
OKEECHOBEE     FAIR      82  73  74 CALM      30.02F                  

$$
FLZ041-047-054-059-064-141-147-212200-
EAST CENTRAL FLORIDA
  
CITY           SKY/WX    TMP DP  RH WIND       PRES   REMARKS
ORMOND BEACH   MOSUNNY   84  77  79 SE9       30.05F                  
DAYTONA BEACH  CLOUDY    81  74  79 CALM      30.05S                  
DELAND         FAIR      75  72  88 SW6       30.06S                  
NEW SMYRNA BEA MOSUNNY   82  75  78 SE7       30.06F                  
JFK SPACE CTR  MOSUNNY   85  67  54 SE8       30.03F                  
TITUSVILLE     PTSUNNY   88  73  62 S6        30.05F HX  96           
CAPE CANAVERAL SUNNY     86  58  38 SE9       30.03F                  
PATRICK AFB    FAIR      86  78  77 SE9       30.04S HX  98           
MELBOURNE      FAIR      87  75  67 SE10      30.04S HX  96           
VERO BEACH     FAIR      86  74  67 SE15      30.03F                  
FT PIERCE      FAIR      88  72  58 SE15      30.02F                  
STUART         MOSUNNY   90  70  51 SE14G21   30.04F HX  95           

STATION/POSITION SKY/WX   TEMP    WIND        PRES    WAVE   SWELL
                          AIR SEA DIR/SP/G            HT/PER HT/PER
                          (F)     (DEG/KT/KT) (MB)    (FT/S) (FT/S)
28.5N   80.2W              85 85  150/  8/ 10 1017.4F   1/ 8   2/ 8
28.9N   78.5W              85 87  140/  6/  8   N/A     2/ 8   2/ 8
TRIDENT PIER               86 85  140/  6/  7 1018.8
28.4N   80.5W                 83                N/A     1/ 8
27.5N   80.2W                 83                N/A     2/ 8

$$
FLZ050-056-061-142-242-148-248-149-249-151-251-155-255-
160-260-212200-
WEST CENTRAL FLORIDA
  
CITY           SKY/WX    TMP DP  RH WIND       PRES   REMARKS
CRYSTAL RIVER  TSTM      82  75  78 W6        30.02S                  
INVERNESS      TSTM      77  75  94 CALM      30.06R VSB 3/4          
BROOKSVILLE    TSTM      72  68  87 SE18G32   30.09R                  
CLEARWATER AIR FAIR      86  75  70 W3        30.04R HX  95           
ST PETE CLEARW FAIR      85  73  67 CALM      30.05R                  
TAMPA INTL     CLOUDY    80  69  69 E9G18     30.07R                  
TAMPA EXEC     RAIN      72  72 100 CALM      30.08R                  
PLANT CITY     RAIN     N/A N/A N/A MISG      30.09F                  
MACDILL AFB    CLOUDY    79  70  73 E20       30.07R THUNDER          
PETER O KNIGHT CLOUDY    79  72  78 SE14      30.06R                  
ST PETERSBURG  CLOUDY    78  69  73 SE23      30.04R THUNDER          
SARASOTA       HVY RAIN  76  72  87 E12G21    30.05R FOG              
VENICE         PTSUNNY   79  70  73 NE15G32   30.06R THUNDER          

STATION/POSITION SKY/WX   TEMP    WIND        PRES    WAVE   SWELL
                          AIR SEA DIR/SP/G            HT/PER HT/PER
                          (F)     (DEG/KT/KT) (MB)    (FT/S) (FT/S)
27.3N   84.2W                 87                N/A     2/ 5
CLEARWATER BEACH           84 87  270/  3/  5 1017.2R
MIDDLE TAMPA BAY           80     140/ 16/ 19 1017.8R
VENICE                     77 86   30/ 15/ 18 1017.5R

$$
FLZ066-069-070-075>078-162-262-165-265-212200-
SOUTHWEST FLORIDA AND KEYS
  
CITY           SKY/WX    TMP DP  RH WIND       PRES   REMARKS
PUNTA GORDA    TSTM      75  73  93 S17       30.05R FOG              
FT MYERS       FAIR      81  70  69 NE20      30.03R                  
SOUTHWEST INTL TSTM      81  72  74 SE29G38   30.05R                  
NAPLES         MOSUNNY  N/A N/A N/A SW12      30.00S THUNDER          
MARCO ISLAND   TSTM      77  71  82 MISG      30.02R                  
IMMOKALEE      CLOUDY    79  73  83 S15G23    30.02R                  
MARATHON       FAIR      87  74  64 E12G21    30.00F HX  95           
KEY WEST NAS   FAIR      90  75  61 SE12      30.00F HX 100           
KEY WEST INTL  FAIR      88  76  67 SE13      30.00F HX  99           

STATION/POSITION SKY/WX   TEMP    WIND        PRES    WAVE   SWELL
                          AIR SEA DIR/SP/G            HT/PER HT/PER
                          (F)     (DEG/KT/KT) (MB)    (FT/S) (FT/S)
NAPLES                     88 88              1015.6F
26.0N   85.6W              84 86  100/  6/  6 1016.3F   2/ 4   2/ 4
DRY TORTUGAS               84     140/ 11/ 12 1015.8F
SAND KEY                   85     130/ 11/ 12 1014.6
SOMBRERO KEY               84     110/  8/ 12 1015.9
LONG KEY                   83                 1015.2

$$
FLZ067-068-071>074-168-172>174-212200-
SOUTHEAST FLORIDA 
  
CITY           SKY/WX    TMP DP  RH WIND       PRES   REMARKS
W PALM BEACH   PTSUNNY   87  73  62 E12       30.02F                  
BOCA RATON     SUNNY     86  75  70 E9        30.02F HX  95           
FT LAUDER-EXEC FAIR      86  72  62 SE12      30.01F                  
FT LAUDERDALE  PTSUNNY   88  74  63 SE13      30.01S HX  96           
POMPANO BEACH  FAIR      87  73  62 E12       30.02S                  
PEMBROKE PINES FAIR      90  73  57 SE13      30.02F HX  98           
OPA LOCKA      FAIR      89  73  59 SE14      30.02F HX  97           
MIAMI          PTSUNNY   89  72  56 SE10G18   30.01F HX  96           
WEST KENDALL   FAIR      89  73  59 SE13      30.01S HX  97           
HOMESTEAD      FAIR      88  74  63 E9        30.01S HX  97           

STATION/POSITION SKY/WX   TEMP    WIND        PRES    WAVE   SWELL
                          AIR SEA DIR/SP/G            HT/PER HT/PER
                          (F)     (DEG/KT/KT) (MB)    (FT/S) (FT/S)
VIRGINIA KEY               85 89   80/  9/ 11 1016.2F
LAKE WORTH                 83 85  140/  9/ 10 1018.1
FOWEY ROCKS                84 85  110/ 11/ 12 1016.8F
SETTLEMENT POINT